sat.trackr.live / text

‹ back to catalog

KONDOR-FKA NO. 2

NORAD 62138 · 2024-223A

PAYLOAD ACTIVE UNKNOWN

§ Identity

Operator
Country
CIS
Launch date
2024-11-29
Launch site
VOSTO
Launch vehicle
Mass (kg)
RCS (m²)

External: N2YO · Heavens-Above · Gunter

§ Orbital elements

Epoch: 2026-09-22T22:57:30.708288Z

Period
94.76 min
Inclination
97.4419°
Eccentricity
0.0001774
Mean motion
15.19694901 rev/d
Perigee alt
505.5 km
Apogee alt
508.0 km
Semi-major
6,884.9 km
B*
1.1582e-4
RAAN
107.9958°
Arg perigee
89.1237°
Mean anomaly
271.0201°
Rev number
10,055

§ Raw data

KONDOR-FKA NO. 21 62138U 24223A   26265.95660542  .00002404  00000+0  11582-3 0  99902 62138  97.4419 107.9958 0001774  89.1237 271.0201 15.19694901100553

JSON: /api/v1/satellites/62138 · /tle

For live sub-satellite position, see the globe view (requires WebGL).

§ Visibility from observer

Set your observer location to see the next 7 days of passes ≥ 10°. The values pass through the URL so the page stays shareable.

No JS? Fill the form by hand. The geolocation button needs JavaScript.